Location: Buckeye Ditch
(40.9104°N, 122.9517°W)
Time: 13:01:08
(UTC+00:00)

Transit 2A Rocket - Pass Details

Date: 19 May 2025
Orbit: 590 x 896 km, 66.7° (Epoch: 15 June)

Event Time Altitude Azimuth Distance (km) Brightness Sun altitude
Rises 05:39:58 0° 314° (NW) 2,963 9.6 -20.2°
Reaches altitude 10° 05:42:41 10° 298° (WNW) 2,096 8.2 -20.5°
Maximum altitude 05:46:09 20° 251° (WSW) 1,573 6.8 -20.9°
Enters shadow 05:48:44 14° 214° (SSW) 1,939 6.9 -21.2°
